Theta_e
333 331 331 333 333 333 333 332 332 332 332 331 331 332 331 332 333 333 333 332 333 332 332 332 332 332 332 333 332 330 331 333 334 337 338 337 336 336 333 333 333 332
333 333 333 334 334 332 333 334 334 332 333 333 333 333 334 333 332 333 332 331 331 331 331 331 331 331 331 331 331 331 330 332 331 331 333 332 333 334 334 335 335 335
333 332 333 334 333 333 334 334 334 333 331 331 332 333 332 333 332 332 332 332 330 330 331 331 331 331 330 330 330 331 331 330 330 330 330 328 329 330 332 333 335 335
333 334 334 333 334 334 334 332 332 332 332 330 330 332 333 332 332 331 331 329 329 329 331 330 331 330 328 329 329 328 329 329 329 330 329 329 329 329 330 332 333 333
336 335 333 333 333 333 332 331 331 330 331 331 332 333 332 331 331 330 330 327 329 329 330 329 330 328 328 328 328 327 328 327 328 328 326 326 328 329 330 330 332 333
335 333 332 332 331 330 329 330 330 330 330 331 331 331 330 330 329 329 327 327 326 327 327 329 329 327 327 327 328 327 326 325 326 325 322 323 325 327 326 329 332 333
333 333 333 332 331 330 331 331 331 330 330 331 329 329 330 329 330 328 326 326 325 325 325 326 328 327 328 327 326 325 325 325 322 322 321 322 325 326 326 326 327 328
334 334 332 332 332 331 331 331 332 331 330 328 327 329 329 329 329 327 326 325 323 322 322 323 326 327 327 326 325 325 325 322 322 321 322 321 324 324 326 326 328 328
334 334 332 331 331 330 330 328 330 330 328 328 327 329 329 328 328 326 325 325 323 323 321 321 323 326 327 326 325 324 321 321 322 323 323 323 322 323 323 325 326 327
333 335 332 331 328 329 329 329 329 330 328 327 326 327 327 328 327 325 326 325 323 321 320 321 323 325 325 325 322 320 320 321 322 323 323 323 322 322 323 324 325 325
329 329 331 329 328 329 330 330 330 329 328 326 327 325 327 327 327 327 327 324 324 321 320 321 323 323 323 322 322 323 322 323 322 322 324 323 323 323 328 324 324 324
327 325 326 330 328 329 329 329 330 329 328 328 326 324 326 327 328 326 326 324 323 321 320 321 322 322 322 322 322 323 324 324 324 324 323 322 321 322 323 323 324 324
324 324 328 330 333 329 329 328 328 329 327 327 326 325 326 325 325 326 325 325 322 322 320 320 321 322 323 323 323 323 323 323 323 324 323 323 323 323 323 323 322 322
326 328 329 330 330 330 328 328 328 328 327 327 326 325 325 322 323 324 324 324 323 322 321 321 321 322 323 323 323 323 324 324 324 324 324 325 326 325 326 325 325 323
327 329 329 329 329 329 329 327 327 328 327 325 325 326 325 324 322 322 321 321 322 322 321 323 323 324 324 323 323 321 324 323 324 323 324 325 326 326 326 326 326 327
326 326 327 327 327 327 327 328 327 327 325 324 323 323 323 323 321 322 321 324 323 323 324 325 325 328 310 299 304 325 325 324 325 326 325 326 325 326 326 326 327 327
325 325 325 324 325 326 327 327 326 327 327 326 324 323 323 322 321 321 321 323 324 325 326 326 328 323 296 295 296 297 323 327 324 325 325 325 325 326 327 326 328 327
323 323 323 323 323 323 324 323 323 322 322 324 325 325 325 325 324 322 322 323 323 323 325 325 326 298 294 295 295 294 300 321 328 327 327 327 327 326 327 328 327 328
322 322 322 324 323 323 322 321 319 319 321 322 323 324 325 323 322 324 325 325 325 324 324 325 322 295 295 296 296 296 297 307 326 328 327 327 327 327 327 326 326 327
321 320 320 321 321 321 320 320 320 318 320 323 324 324 323 323 323 324 324 323 323 323 325 325 313 297 294 295 296 295 296 299 326 326 328 328 327 327 327 326 326 326
322 322 322 322 322 321 321 319 319 319 319 322 323 325 325 323 323 323 323 323 322 323 324 315 305 293 292 293 293 294 293 297 323 327 328 329 329 329 327 328 328 327
320 321 320 320 321 320 320 320 319 318 319 319 320 322 323 325 324 324 323 323 323 324 321 312 306 291 292 292 293 293 292 311 322 325 326 325 325 324 322 326 328 329
313 316 319 320 320 319 318 319 320 319 320 320 320 321 321 322 322 322 323 323 323 321 319 315 310 296 291 292 292 291 298 315 321 324 323 323 324 326 328 328 328 327
310 312 316 318 317 317 317 319 320 322 323 324 320 319 320 321 322 323 322 321 319 320 319 313 307 296 291 292 292 291 295 310 319 322 323 324 325 326 327 326 326 323
307 308 310 311 312 314 315 316 316 317 320 322 322 322 321 321 321 321 320 319 318 318 314 313 308 301 292 291 291 291 296 307 315 319 321 321 321 322 324 325 323 321
308 308 308 309 310 310 312 315 316 316 317 319 322 322 321 318 320 318 317 317 317 318 317 315 310 304 296 290 291 291 290 299 311 318 320 319 319 318 319 320 320 318
Wind_Speed
5 5 6 7 7 7 7 7 6 6 5 5 5 5 6 6 6 5 6 5 4 3 3 3 2 2 2 2 2 2 4 3 1 2 3 2 2 3 5 7 5 3
8 7 7 7 6 7 5 6 7 7 6 6 6 6 6 7 7 6 6 5 4 4 3 3 3 4 4 4 3 2 5 4 4 3 3 3 3 2 2 3 5 6
9 9 12 10 8 8 8 7 7 6 6 6 7 6 6 6 6 6 5 5 4 5 4 4 4 4 3 5 4 4 5 5 5 5 4 4 3 3 2 1 2 3
13 14 12 10 9 10 9 9 7 7 7 7 7 6 6 6 6 7 5 4 5 5 5 4 4 4 5 5 4 4 5 5 5 4 3 3 3 2 2 2 3 3
14 12 11 9 10 9 9 9 9 8 7 7 7 6 6 7 7 7 6 5 5 6 5 5 4 4 5 5 5 5 4 4 4 4 3 3 2 2 2 3 4 4
11 11 11 11 10 9 9 10 9 9 8 7 7 6 6 7 7 7 7 6 6 6 6 5 5 5 5 5 5 5 5 5 4 3 4 4 4 4 4 3 3 4
12 10 10 10 10 10 9 9 8 8 7 6 6 6 7 8 7 8 7 6 6 6 6 6 6 6 5 5 5 5 4 4 5 4 5 4 3 2 4 5 4 5
10 9 10 8 10 10 9 9 7 7 7 6 5 6 8 8 8 7 6 6 6 6 6 6 7 6 6 5 5 4 3 3 4 5 4 5 4 4 4 3 3 4
5 8 9 10 9 9 9 10 9 8 7 6 6 7 8 7 7 7 6 6 6 6 6 6 7 7 6 5 4 5 4 4 4 3 4 4 4 6 6 5 5 4
1 3 9 8 10 8 10 9 9 8 7 7 6 6 7 7 8 7 6 6 6 6 7 6 7 7 6 5 6 5 5 6 5 5 5 4 4 5 6 6 6 6
1 5 2 9 9 9 10 9 9 8 8 7 6 6 7 7 7 6 6 6 5 6 7 7 7 7 7 6 5 5 6 6 6 5 4 3 3 4 4 6 6 6
8 8 3 3 7 8 10 9 8 8 8 7 7 7 6 6 7 6 6 6 6 6 7 7 7 7 7 7 7 6 6 5 4 4 4 4 4 3 3 3 4 4
9 7 5 4 2 6 7 8 8 8 9 8 7 7 6 5 6 6 6 6 7 5 6 7 8 7 7 7 7 6 6 5 5 4 4 4 3 3 4 3 3 3
7 6 6 5 5 5 7 7 7 7 7 7 7 7 6 6 7 6 6 4 5 5 6 6 7 7 7 7 7 6 6 5 5 4 4 3 3 3 3 2 3 4
8 7 6 5 5 7 5 6 8 7 7 8 7 6 5 5 6 7 7 7 6 6 6 5 5 6 4 3 5 7 4 5 5 5 5 4 4 3 3 3 3 3
7 7 6 6 5 6 6 6 6 6 6 7 7 6 5 5 6 6 7 5 5 4 4 4 4 4 6 10 8 4 3 4 4 4 5 5 5 5 5 5 4 4
8 7 6 6 5 5 6 7 7 7 6 6 6 6 6 4 4 5 6 5 6 4 4 3 3 5 10 11 11 11 7 1 5 4 5 5 5 5 6 5 5 4
6 7 5 6 6 7 5 7 7 7 8 7 7 8 6 4 4 4 5 4 4 5 4 3 5 6 10 11 10 10 8 5 4 4 4 4 6 5 5 5 5 5
6 6 7 6 5 5 5 6 6 5 6 7 6 6 5 5 5 5 5 5 4 3 2 4 5 7 9 9 9 10 11 8 5 5 4 5 5 5 5 6 5 5
6 7 7 7 6 6 5 5 4 5 4 4 3 3 5 5 5 5 4 4 3 3 3 7 7 11 8 9 8 8 9 8 6 6 6 6 6 7 6 6 6 5
6 8 8 8 8 8 7 7 7 5 1 2 1 2 4 4 4 4 4 3 2 1 4 6 5 10 10 9 9 9 10 7 5 6 6 6 5 7 9 7 5 7
7 6 7 8 8 7 7 7 9 8 6 4 3 3 4 4 4 4 4 4 4 3 7 5 5 8 9 9 9 9 9 4 4 5 7 7 6 4 8 11 8 6
8 8 7 6 7 7 6 5 4 8 7 6 5 5 5 5 5 4 5 4 4 6 7 5 4 6 7 8 9 10 6 4 6 6 6 7 6 6 11 8 7 8
9 8 7 7 7 8 7 5 4 3 3 1 5 6 6 6 6 6 6 7 7 6 6 5 3 5 7 8 8 9 5 4 6 7 5 8 8 9 8 6 5 4
9 9 9 9 9 9 6 5 5 5 3 2 3 2 5 5 5 6 6 6 7 8 8 6 5 5 9 9 9 10 7 4 5 7 6 8 8 7 6 7 6 6
9 10 9 9 9 9 7 6 5 5 4 5 6 5 5 6 6 6 6 6 6 7 6 6 6 6 8 10 10 10 8 4 5 6 5 5 5 5 4 3 2 4
Wind_Direction
168 136 204 232 189 174 181 161 146 141 139 135 138 139 139 132 141 138 120 126 128 121 114 112 109 145 146 111 134 215 112 124 127 148 146 156 145 169 161 162 183 202
169 168 218 213 196 172 160 147 138 150 142 143 140 135 131 133 141 140 136 134 142 128 133 136 152 150 161 142 147 116 116 132 135 128 129 131 134 153 168 181 172 172
169 189 201 188 165 149 143 141 140 135 131 118 121 124 131 134 141 136 141 139 137 133 142 153 146 158 150 126 153 129 129 147 141 145 153 129 138 150 131 154 210 169
192 184 169 161 151 147 143 144 143 133 133 137 147 143 133 140 140 138 138 132 128 140 145 145 153 157 145 135 142 131 136 146 129 127 129 147 168 132 133 160 185 183
168 160 150 150 149 149 142 141 143 137 138 141 139 135 140 141 151 147 142 144 137 145 147 152 159 139 138 153 147 135 147 128 145 176 158 156 145 142 151 181 183 180
159 158 152 148 148 146 146 148 150 142 142 148 146 143 145 150 163 149 149 149 154 148 156 158 160 150 170 153 154 155 162 169 163 171 161 166 153 184 170 163 184 158
161 156 144 140 144 145 147 151 145 141 145 152 150 155 151 160 164 149 155 156 153 155 158 162 161 171 166 163 167 172 178 146 172 181 164 146 130 143 125 148 160 161
164 148 144 140 142 144 145 145 138 142 142 145 156 154 157 164 157 154 153 167 155 158 154 156 171 172 167 177 175 164 142 174 174 180 155 132 172 146 113 110 136 158
169 154 142 139 141 146 148 152 151 152 148 147 164 157 165 163 153 158 162 167 158 159 157 153 173 165 171 183 157 160 171 175 188 148 120 146 153 157 148 133 137 138
337 96 133 141 148 156 148 147 153 152 147 158 161 165 163 168 157 167 164 169 165 164 156 162 159 161 172 169 162 169 171 168 160 139 157 164 145 133 128 140 132 139
13 27 313 154 156 154 148 151 155 152 147 159 159 165 166 169 162 171 167 171 169 173 160 164 156 162 162 163 155 164 164 157 157 157 155 149 81 79 105 118 137 142
126 146 256 261 156 145 151 154 153 156 153 159 164 165 160 175 161 176 168 172 172 182 163 164 163 160 161 158 156 157 152 160 141 145 146 122 138 147 105 113 120 123
153 146 112 39 57 146 148 158 163 161 162 159 165 163 154 172 165 162 172 175 174 178 165 169 162 164 158 159 156 155 152 142 151 154 140 137 146 124 126 125 134 118
112 118 101 96 77 114 152 155 156 160 167 151 166 157 157 174 164 164 166 171 173 172 168 166 157 170 161 162 165 156 151 153 154 164 148 149 153 137 123 127 120 140
131 104 99 93 94 97 114 154 155 158 166 161 156 149 158 169 162 166 164 183 169 175 159 152 163 169 153 174 169 159 157 169 160 177 167 164 173 161 160 160 162 133
112 111 102 83 78 90 91 82 115 147 150 148 147 142 153 159 166 162 163 156 149 141 135 145 174 88 46 50 31 33 173 167 171 181 193 182 190 182 184 193 181 175
114 123 137 151 133 105 102 96 85 77 75 83 100 122 129 133 144 145 157 154 149 144 132 168 102 45 34 38 30 29 0 248 187 205 202 202 201 205 197 198 207 209
97 103 120 129 138 150 121 93 83 78 73 69 79 84 83 80 83 110 131 131 144 150 144 128 73 17 39 37 17 17 24 347 290 219 206 222 214 211 213 207 204 223
90 96 96 98 104 99 86 87 80 66 72 75 64 77 89 87 78 63 61 60 54 71 89 83 77 20 48 39 32 6 4 339 278 257 233 227 237 230 237 228 219 214
117 116 118 120 119 109 110 102 93 78 58 71 81 65 83 86 90 88 83 74 64 75 37 48 47 3 16 45 32 8 360 344 286 286 278 264 246 237 234 249 238 231
116 129 127 137 143 148 151 137 116 103 97 106 192 133 103 107 106 116 108 107 100 108 88 68 39 5 4 22 25 360 352 330 301 293 272 261 292 332 295 253 252 251
51 72 123 130 133 141 149 148 146 156 178 168 173 122 108 101 115 122 135 135 136 133 89 75 41 21 7 14 11 359 348 306 282 277 267 263 255 239 266 263 243 247
49 50 57 79 91 105 94 76 107 152 166 171 171 163 149 146 142 140 129 123 107 98 93 85 64 23 16 19 13 4 344 306 278 264 264 260 272 243 242 246 252 246
46 48 64 86 90 101 98 93 91 69 36 304 175 165 155 147 136 107 83 78 81 94 103 106 87 39 27 28 16 13 357 310 298 279 287 294 259 251 263 278 284 296
48 46 48 56 63 66 57 69 69 77 91 4 40 61 123 122 120 113 90 81 84 93 102 94 85 58 32 22 22 18 7 314 308 290 255 254 273 284 299 282 311 38
49 50 53 60 63 57 51 64 89 92 92 127 140 141 116 102 57 82 88 76 77 83 78 80 78 56 31 20 23 21 15 346 295 302 300 303 321 358 344 352 61 116